EW4214 Weather Reports


Display with metric or nautical units.
time (UTC)temp
F
wind
direction
speed
MPH
gust
MPH
rain 1hr
in
rain 24hr
in
rain mn
in
humidity
%
barometer
mb
20260902090209 87 299 2.0 6.0 0.00 0.00 0.00 68 1005.6
20260902085208 87 234 4.0 5.0 0.00 0.00 0.00 69 1005.6
20260902084217 87 277 0.0 6.0 0.00 0.00 0.00 68 1006.1
20260902084201 87 268 3.0 6.0 0.00 0.00 0.00 68 1006.0
20260902082159 87 275 2.0 5.0 0.00 0.00 0.00 69 1006.1
20260902081159 88 300 2.0 5.0 0.00 0.00 0.00 69 1006.2
20260902080702 88 230 1.0 5.0 0.00 0.00 0.00 68 1006.3
20260902080438 87 293 2.0 7.0 0.00 0.00 0.00 68 1006.4
20260902074152 87 261 0.0 5.0 0.00 0.00 0.00 68 1006.6
20260902073149 87 5 1.0 7.0 0.00 0.00 0.00 69 1006.7
20260902072145 87 307 2.0 8.0 0.00 0.00 0.00 68 1006.9
20260902071142 87 268 4.0 9.0 0.00 0.00 0.00 69 1007.1
20260902070137 87 245 4.0 11.0 0.00 0.00 0.00 69 1007.3
20260902065638 87 310 4.0 10.0 0.00 0.00 0.00 69 1007.4
20260902064133 87 326 2.0 8.0 0.00 0.00 0.00 70 1007.7
20260902063132 87 247 2.0 6.0 0.00 0.00 0.00 70 1007.9
20260902062131 86 309 2.0 8.0 0.00 0.00 0.00 71 1008.1
20260902060132 86 272 3.0 5.0 0.00 0.00 0.00 71 1008.2
20260902055132 86 246 2.0 6.0 0.00 0.00 0.00 71 1008.4
20260902054133 86 152 4.0 6.0 0.00 0.00 0.00 71 1008.5
20260902053617 86 228 3.0 5.0 0.00 0.00 0.00 71 1008.8
20260902052630 86 306 3.0 6.0 0.00 0.00 0.00 71 1008.8
20260902051131 86 273 1.0 4.0 0.00 0.00 0.00 71 1008.9
20260902050131 85 242 1.0 6.0 0.00 0.00 0.00 71 1009.2
20260902045132 85 214 2.0 6.0 0.00 0.00 0.00 71 1009.3
20260902044133 85 243 3.0 6.0 0.00 0.00 0.00 72 1009.3
20260902043132 85 295 2.0 7.0 0.00 0.00 0.00 72 1009.4
20260902042133 85 272 2.0 6.0 0.00 0.00 0.00 72 1009.5
20260902041131 85 326 0.0 7.0 0.00 0.00 0.00 72 1009.6
20260902040614 85 242 2.0 6.0 0.00 0.00 0.00 72 1009.7
20260902035132 85 272 2.0 4.0 0.00 0.00 0.00 73 1009.6
20260902034132 85 242 1.0 4.0 0.00 0.00 0.00 74 1009.7
20260902033132 84 213 2.0 5.0 0.00 0.00 0.00 74 1009.7
20260902032131 84 240 2.0 6.0 0.00 0.00 0.00 74 1009.8
20260902031131 84 255 2.0 6.0 0.00 0.00 0.00 74 1009.7
20260902030131 84 338 2.0 5.0 0.00 0.00 0.00 75 1009.7
20260902025131 84 206 2.0 5.0 0.00 0.00 0.00 75 1009.7
20260902024131 84 229 3.0 4.0 0.00 0.00 0.00 75 1009.7
20260902024052 84 342 2.0 3.0 0.00 0.00 0.00 75 1009.7
20260902022131 84 255 3.0 5.0 0.00 0.00 0.00 76 1009.9
20260902021133 84 241 1.0 4.0 0.00 0.00 0.00 77 1009.8
20260902020131 83 10 1.0 4.0 0.00 0.00 0.00 77 1009.7
20260902015131 83 241 1.0 4.0 0.00 0.00 0.00 77 1009.7
20260902014134 83 235 1.0 3.0 0.00 0.00 0.00 78 1009.7
20260902013604 83 235 1.0 2.0 0.00 0.00 0.00 77 1009.7
20260902012131 83 145 0.0 3.0 0.00 0.00 0.00 78 1009.7
20260902011616 83 319 0.0 3.0 0.00 0.00 0.00 78 1009.6
20260902010132 83 204 0.0 2.0 0.00 0.00 0.00 78 1009.6
20260902005132 83 255 0.0 2.0 0.00 0.00 0.00 78 1009.6
20260902004131 83 160 0.0 2.0 0.00 0.00 0.00 78 1009.3
20260902003623 83 224 0.0 3.0 0.00 0.00 0.00 78 1009.3
20260902002132 83 34 0.0 2.0 0.00 0.00 0.00 79 1009.0
20260902001132 83 135 0.0 2.0 0.00 0.00 0.00 79 1008.9
20260902000130 83 284 0.0 2.0 0.00 0.00 0.00 79 1008.9
20260901235131 82 261 1.0 2.0 0.00 0.00 0.00 80 1009.0
20260901234130 82 242 0.0 3.0 0.00 0.00 0.00 79 1009.0
20260901233129 82 269 0.0 2.0 0.00 0.00 0.00 80 1009.1
20260901232129 82 255 0.0 2.0 0.00 0.00 0.00 80 1008.9
20260901231128 82 262 0.0 2.0 0.00 0.00 0.00 80 1008.9
20260901230258 82 269 0.0 2.0 0.00 0.00 0.00 80 1008.8
20260901225255 82 264 1.0 2.0 0.00 0.00 0.00 80 1008.8
20260901224250 83 253 0.0 2.0 0.00 0.00 0.00 80 1008.8
20260901223759 83 251 0.0 1.0 0.00 0.00 0.00 81 1008.8
20260901222244 83 269 0.0 1.0 0.00 0.00 0.00 80 1008.7
20260901221238 83 135 0.0 1.0 0.00 0.00 0.00 81 1008.7
20260901220233 83 243 0.0 1.0 0.00 0.00 0.00 81 1008.6
20260901215234 83 232 0.0 1.0 0.00 0.00 0.00 81 1008.7
20260901214226 83 89 0.0 1.0 0.00 0.00 0.00 81 1008.6
20260901213221 83 242 0.0 0.0 0.00 0.00 0.00 81 1008.5
20260901212221 83 62 0.0 1.0 0.00 0.00 0.00 81 1008.3
20260901211724 83 241 0.0 1.0 0.00 0.00 0.00 81 1008.3
20260901210210 83 42 0.0 1.0 0.00 0.00 0.00 81 1008.4
20260901205210 83 224 0.0 0.0 0.00 0.00 0.00 81 1008.5
20260901204205 83 246 0.0 0.0 0.00 0.00 0.00 81 1008.6
20260901203200 83 135 0.0 0.0 0.00 0.00 0.00 81 1008.6
20260901202156 83 217 0.0 0.0 0.00 0.00 0.00 80 1008.6
20260901201155 83 269 0.0 0.0 0.00 0.00 0.00 80 1008.7
20260901200148 83 269 0.0 0.0 0.00 0.00 0.00 80 1008.7
20260901195149 83 44 0.0 1.0 0.00 0.00 0.00 80 1008.7
20260901194142 83 297 0.0 2.0 0.00 0.00 0.00 80 1008.8
20260901193142 83 283 0.0 2.0 0.00 0.00 0.00 80 1008.7
20260901192142 83 260 0.0 1.0 0.00 0.00 0.00 81 1008.7
20260901191136 83 135 0.0 1.0 0.00 0.00 0.00 80 1008.7
20260901190132 83 242 0.0 0.0 0.00 0.00 0.00 81 1008.7
20260901185128 83 205 0.0 1.0 0.00 0.00 0.00 81 1008.9
20260901184125 83 141 0.0 2.0 0.00 0.00 0.00 81 1008.9
20260901183121 83 135 0.0 1.0 0.00 0.00 0.00 81 1008.8
20260901182120 83 242 0.0 0.0 0.00 0.00 0.00 81 1008.8
20260901181112 83 103 0.0 0.0 0.00 0.00 0.00 81 1008.9
20260901180609 83 269 0.0 1.0 0.00 0.00 0.00 81 1009.2
20260901175607 84 284 0.0 1.0 0.00 0.00 0.00 81 1009.3
20260901174104 84 89 0.0 0.0 0.00 0.00 0.00 80 1009.5
20260901173103 84 37 0.0 2.0 0.00 0.00 0.00 80 1009.7
20260901172104 84 158 0.0 1.0 0.00 0.00 0.00 80 1009.9
20260901171103 84 50 0.0 0.0 0.00 0.00 0.00 81 1010.0
20260901171047 84 89 0.0 1.0 0.00 0.00 0.00 81 1010.1
20260901165548 84 135 0.0 0.0 0.00 0.00 0.00 80 1010.1
20260901164104 84 284 0.0 0.0 0.00 0.00 0.00 80 1009.9
20260901163104 84 269 0.0 0.0 0.00 0.00 0.00 80 1010.1
20260901162104 84 297 0.0 1.0 0.00 0.00 0.00 80 1010.3
20260901161104 84 235 0.0 1.0 0.00 0.00 0.00 80 1010.3
20260901155104 84 239 0.0 1.0 0.00 0.00 0.00 80 1010.4
20260901154104 84 269 0.0 0.0 0.00 0.00 0.00 80 1010.6
20260901153107 84 333 0.0 2.0 0.00 0.00 0.00 80 1010.6
20260901152104 84 113 0.0 2.0 0.00 0.00 0.00 80 1010.6
20260901151105 84 249 0.0 1.0 0.00 0.00 0.00 79 1010.6
20260901150104 84 105 0.0 1.0 0.00 0.00 0.00 79 1010.5
20260901145104 84 269 0.0 1.0 0.00 0.00 0.00 79 1010.6
20260901144108 84 104 0.0 1.0 0.00 0.00 0.00 79 1010.3
20260901143106 84 238 0.0 0.0 0.00 0.00 0.00 78 1010.1
20260901142103 84 269 0.0 0.0 0.00 0.00 0.00 78 1009.8
20260901141103 84 304 0.0 0.0 0.00 0.00 0.00 77 1009.7
20260901140104 84 269 0.0 0.0 0.00 0.00 0.00 77 1009.6
20260901135102 84 224 0.0 1.0 0.00 0.00 0.00 76 1009.4
20260901134108 84 256 0.0 1.0 0.00 0.00 0.00 76 1009.4
20260901133102 84 25 0.0 1.0 0.00 0.00 0.00 75 1009.2
20260901132102 84 304 0.0 1.0 0.00 0.00 0.00 75 1009.0
20260901131100 84 126 0.0 2.0 0.00 0.00 0.00 75 1008.9
20260901130100 85 97 0.0 2.0 0.00 0.00 0.00 75 1008.9
20260901125100 85 299 0.0 2.0 0.00 0.00 0.00 74 1008.8
20260901124059 85 78 0.0 2.0 0.00 0.00 0.00 75 1008.6
20260901123058 85 258 1.0 2.0 0.00 0.00 0.00 75 1008.7
20260901122059 85 317 0.0 2.0 0.00 0.00 0.00 74 1008.6
20260901121058 85 117 0.0 2.0 0.00 0.00 0.00 74 1008.4
20260901120057 85 254 1.0 3.0 0.00 0.00 0.00 74 1008.2
20260901115100 85 160 0.0 4.0 0.00 0.00 0.00 74 1008.1
20260901114058 85 224 1.0 3.0 0.00 0.00 0.00 74 1008.0
20260901113056 85 65 0.0 7.0 0.00 0.00 0.00 73 1008.2
20260901112055 85 344 0.0 7.0 0.00 0.00 0.00 73 1008.1
20260901111543 85 206 2.0 5.0 0.00 0.00 0.00 75 1007.6
20260901110055 85 283 1.0 2.0 0.00 0.00 0.00 76 1007.5
20260901105054 86 4 0.0 3.0 0.00 0.00 0.00 76 1006.8
20260901104053 86 239 2.0 3.0 0.00 0.00 0.00 77 1006.7
20260901103054 86 173 0.0 3.0 0.00 0.00 0.00 77 1006.7
20260901102053 86 305 0.0 2.0 0.00 0.00 0.00 77 1006.6
20260901101051 86 51 0.0 6.0 0.00 0.00 0.00 76 1006.5
20260901100923 86 351 1.0 3.0 0.00 0.00 0.00 74 1006.5
20260901100436 86 56 3.0 8.0 0.00 0.00 0.00 74 1006.4
20260901100222 86 226 2.0 6.0 0.00 0.00 0.00 75 1006.4
20260901093734 86 257 5.0 8.0 0.00 0.00 0.00 72 1006.3
20260901092208 86 163 0.0 3.0 0.00 0.00 0.00 71 1006.1
20260901091206 86 44 0.0 4.0 0.00 0.00 0.00 71 1006.0
20260901090729 86 267 1.0 6.0 0.00 0.00 0.00 71 1006.0